Regional Weather Roundup
Issued by NWS

Home | Current Version | Previous Version | Text Only | Print | Product List | Glossary Off
Versions: 1 2 3 4 5 6 7 8 9 10 11 12 13 14 15 16 17 18 19 20 21 22 23 24 25 26 27 28 29 30 31 32 33 34 35 36 37 38 39 40 41 42 43 44 45 46 47 48 49 50

340
ASUS43 KIND 291009
RWRIN

WEATHER ROUNDUP FOR INDIANA
NATIONAL WEATHER SERVICE INDIANAPOLIS IN
600 AM EDT SUN MAY 29 2016

NOTE: "FAIR" INDICATES FEW OR NO CLOUDS BELOW 12,000 FEET WITH NO
SIGNIFICANT WEATHER AND/OR OBSTRUCTIONS TO VISIBILITY.

* - STATION DOES NOT REPORT WEATHER SUCH AS PRECIPITATION OR FOG.

+ - STATION NOT QUALITY CONTROLLED BY THE NATIONAL WEATHER SERVICE.
    USE DATA WITH CAUTION...ESPECIALLY DEWPOINT AND RELATIVE
    HUMIDITY OBSERVATIONS.

INZ001>003-010>013-019-020-291100-
NORTHWEST INDIANA

CITY           SKY/WX    TMP DP  RH WIND       PRES   REMARKS
GARY /AIRPORT/ PTCLDY    68  64  88 S7        29.98R
KNOX *+        MOCLDY    63  46  55 S5        30.00S
LA PORTE +     MOCLDY    65  57  75 S3        30.00S
MICHIGAN CITY+ PTCLDY    64  55  72 S7        29.99R
MONTICELLO +   PTCLDY    67  59  75 S6        30.02R
RENSSELAER +   PTCLDY    63  59  88 S5        30.01S
VALPARAISO     PTCLDY    64  55  72 SW8       30.00R

$$

LMZ046-743>745-291100-
SOUTHERN LAKE MICHIGAN

STATION/POSITION TIME  TEMP    WIND        PRES    WAVE
                       AIR SEA DIR/SP/G            HT
                 (UTC) (F)     (DEG/KT/KT) (MB)    (FT)
BURNS HARBOR     0900   68     200/ 11/ 17 1015.2R
MICHIGAN CITY    0900   67     190/  5/  6   N/A
5NW MICH CITY    1000   63 56  210/ 10/ 12   N/A     1

$$

INZ004-005-014>016-021>024-291100-
NORTH CENTRAL INDIANA

CITY           SKY/WX    TMP DP  RH WIND       PRES   REMARKS
GOSHEN         PTCLDY    68  63  84 S8        30.00S
LOGANSPORT +   PTCLDY    64  63  94 S7        30.04R
PERU/GRISSOM   CLEAR     67  67  99 S8        30.02S
ROCHESTER +    FOG       70  68  94 S8        30.02R VSB 1
SOUTH BEND     CLOUDY    64  61  90 S6        30.00R
WARSAW +       CLEAR     68  64  88 CALM      30.01S

$$

INZ006>009-017-018-025>027-291100-
NORTHEAST INDIANA

CITY           SKY/WX    TMP DP  RH WIND       PRES   REMARKS
ANGOLA *+        N/A     66  59  77 S6        30.02F
AUBURN +       CLOUDY    68  63  83 CALM      30.04F
FORT WAYNE     CLOUDY    68  65  90 S9        30.04S
HUNTINGTON +   CLOUDY   N/A N/A N/A S5        30.04S

$$

INZ028-029-035-036-043>045-051>053-291100-
WEST CENTRAL INDIANA

CITY           SKY/WX    TMP DP  RH WIND       PRES   REMARKS
CRAWFORDSVL +  CLOUDY    65  65 100 S7        30.05S
GREENCASTLE +  MOCLDY    64  64 100 S5        30.06S FOG
LAFAYETTE      PTCLDY    61  59  93 CALM      30.02S
TERRE HAUTE    CLEAR     67  64  90 CALM      30.05R

$$

INZ030>032-037>040-046>048-054>057-064-065-291100-
CENTRAL INDIANA

CITY           SKY/WX    TMP DP  RH WIND       PRES   REMARKS
CP ATTERBURY + CLEAR     63  63 100 SW3       30.08F FOG
FISHERS *+     PTCLDY    66  66 100 S5        30.07
FRANKFORT +      N/A     67  67 100 CALM      30.06S
GREENWOOD *+   PTCLDY    68  66  94 S5        30.08S
INDIANAPOLIS   MOCLDY    68  65  90 S10       30.05S
-EAGLE CREEK   PTCLDY    69  64  84 S3        30.06S
KOKOMO *+      PTCLDY    68  63  83 S10       30.04S
MARION +       CLOUDY    67  65  91 S8        30.06S
SHELBYVILLE    PTCLDY    69  64  84 S5        30.07S
ZIONSVILLE +   PTCLDY    67  64  91 S8        30.07S

$$

INZ033-034-041-042-049-050-058-059-291100-
EAST CENTRAL INDIANA

CITY           SKY/WX    TMP DP  RH WIND       PRES   REMARKS
MUNCIE         CLOUDY    70  64  81 S7        30.06F

$$

INZ060-061-067>069-081>083-085>088-291100-
SOUTHWEST INDIANA

CITY           SKY/WX    TMP DP  RH WIND       PRES   REMARKS
EVANSVILLE     CLEAR     65  63  93 CALM      30.08R FOG
HUNTINGBURG *+ PTCLDY    66  63  88 CALM      30.08S
WASHINGTON +   MOCLDY    67  67 100 CALM      30.07R

$$

INZ062-063-066-070>080-084-089>092-291100-
SOUTH CENTRAL AND SOUTHEAST INDIANA

CITY           SKY/WX    TMP DP  RH WIND       PRES   REMARKS
BEDFORD +      PTCLDY    66  66 100 S3        30.08S
BLOOMINGTON    PTCLDY    65  63  93 CALM      30.07F
MADISON *+     PTCLDY    66  63  88 CALM      30.11R
NORTH VERNON + CLOUDY   N/A N/A N/A CALM      30.10R
SEYMOUR +      MOCLDY    66  64  94 CALM      30.08R

$$





USA.gov is the U.S. government's official web portal to all federal, state and local government web resources and services.